Regional Weather Roundup
Issued by NWS

Home | Current Version | Previous Version | Text Only | Print | Product List | Glossary Off
Versions: 1 2 3 4 5 6 7 8 9 10 11 12 13 14 15 16 17 18 19 20 21 22 23 24 25 26 27 28 29 30 31 32 33 34 35 36 37 38 39 40 41 42 43 44 45 46 47 48 49 50

000
ASUS43 KLSX 031910
RWRMO

WEATHER SUMMARY FOR MISSOURI
NATIONAL WEATHER SERVICE SPRINGFIELD MO
200 PM CDT MON AUG 03 2015

NOTE: "FAIR" INDICATES FEW OR NO CLOUDS BELOW 12,000 FEET WITH NO
       SIGNIFICANT WEATHER AND/OR OBSTRUCTIONS TO VISIBILITY.
       CURRENT SKY AND/OR WEATHER CONDITIONS ARE NOT AVAILABLE FOR
       CHILLICOTHE AND FARMINGTON.

MOZ001>031-035>038-043-044-053-054-032000-
...NORTHERN AND WESTERN MISSOURI...

CITY           SKY/WX    TMP DP  RH WIND       PRES   REMARKS
KANSAS CTY INT PTSUNNY   81  68  64 E8        29.94F
KANSAS C DTWN  MOSUNNY   84  68  58 E9        29.92F
LEE`S SUMMIT   MOSUNNY   83  67  58 NE12      29.94F
ST JOSEPH      PTSUNNY   82  71  69 E7        29.95S
CHILLICOTHE      N/A     77  67  71 E3        29.97S
KIRKSVILLE     LGT RAIN  70  62  76 NW7       30.01R

$$
MOZ066>068-077>081-088>096-101>105-032000-
...SOUTHWEST MISSOURI...

CITY           SKY/WX    TMP DP  RH WIND       PRES   REMARKS
SPRINGFIELD    MOSUNNY   91  65  41 W7        29.97S HX  93
JOPLIN         MOSUNNY   94  62  34 S9        29.96S HX  94

$$
MOZ032>034-039>042-045>050-055>058-069>072-032000-
...CENTRAL MISSOURI...

CITY           SKY/WX    TMP DP  RH WIND       PRES   REMARKS
COLUMBIA       PTSUNNY   85  68  56 VRB5      29.95F
JEFFERSON CITY MOSUNNY   87  67  51 W6        29.93F HX  90
ROLLA          SUNNY     89  69  51 W9        29.95R HX  93
SEDALIA        PTSUNNY   84  68  58 NW6       29.98S
WHITEMAN AFB   PTSUNNY   85  68  58 N9        29.95F
WARRENSBURG    MOSUNNY   86  68  54 NE10      29.95S
OSAGE BEACH    SUNNY     90  68  48 SW6       29.96S HX  93

$$
MOZ051-052-059>065-032000-
...EAST CENTRAL MISSOURI...

CITY           SKY/WX    TMP DP  RH WIND       PRES   REMARKS
ST LOUIS INTL  MOSUNNY   93  65  39 NW10      29.92S HX  95
SPIRIT OF STL  MOSUNNY   90  68  48 NW10      29.90S HX  94
ST CHARLES     SUNNY     89  66  46 W7        29.90S HX  91

$$
MOZ072>076-082>087-097>100-106>115-032000-
...SOUTH CENTRAL AND SOUTHEAST MISSOURI...

CITY           SKY/WX    TMP DP  RH WIND       PRES   REMARKS
CAPE GIRARDEAU SUNNY     91  73  55 SW8       29.90F HX  99
FARMINGTON     MOSUNNY   88  66  48 NW8       29.98S HX  90
POPLAR BLUFF   SUNNY     92  68  45 W8        29.90F HX  96
WEST PLAINS    SUNNY     91  65  41 W8        29.99S HX  93

$$



USA.gov is the U.S. government's official web portal to all federal, state and local government web resources and services.